DW7890 Weather Reports


time (UTC)temp
F
wind
direction
speed
knots
gust
knots
rain 1hr
in
rain 24hr
in
rain mn
in
humidity
%
barometer
mb
20260505011607 77 164 0.0 0.0 0.00 0.00 0.00 52 1000.7
20260505010100 77 178 0.0 0.0 0.00 0.00 0.00 51 1000.7
20260505004559 78 140 0.0 0.0 0.00 0.00 0.00 50 1000.6
20260505003058 79 187 0.0 0.0 0.00 0.00 0.00 49 1000.4
20260505001558 80 168 0.0 0.0 0.00 0.00 0.00 49 1000.4
20260505000115 81 166 0.0 0.0 0.00 0.00 0.00 49 1000.4
20260504234558 81 174 0.0 0.0 0.00 0.00 0.00 47 1000.5
20260504233108 82 178 0.0 0.0 0.00 0.00 0.00 47 1000.6
20260504231554 82 163 0.0 0.0 0.00 0.00 0.00 46 1000.7
20260504230053 82 178 0.0 0.0 0.00 0.00 0.00 46 1000.7
20260504224557 82 153 0.0 0.0 0.00 0.00 0.00 45 1000.8
20260504223112 81 155 0.0 0.0 0.00 0.00 0.00 46 1000.9
20260504221550 81 167 0.0 0.0 0.00 0.00 0.00 44 1000.9
20260504220049 82 163 0.0 0.0 0.00 0.00 0.00 45 1001.0
20260504214550 82 161 0.0 0.0 0.00 0.00 0.00 47 1000.9
20260504213059 82 161 0.0 0.0 0.00 0.00 0.00 47 1001.0
20260504211547 82 173 0.0 0.0 0.00 0.00 0.00 47 1000.9
20260504210045 82 245 0.0 0.0 0.00 0.00 0.00 47 1001.1
20260504204548 81 163 0.9 12.2 0.00 0.00 0.00 48 1001.1
20260504203053 81 150 4.3 12.2 0.00 0.00 0.00 51 1001.4
20260504201538 80 180 4.3 7.8 0.00 0.00 0.00 53 1001.6
20260504200035 79 171 4.3 12.2 0.00 0.00 0.00 55 1001.9
20260504194530 77 162 3.5 7.0 0.00 0.00 0.00 59 1002.3
20260504193027 74 140 3.5 7.0 0.00 0.00 0.00 63 1002.3
20260504191524 73 159 3.5 7.8 0.00 0.00 0.00 65 1002.7
20260504190017 70 154 2.6 7.0 0.00 0.00 0.00 69 1002.8
20260504184515 68 146 2.6 6.1 0.00 0.00 0.00 71 1002.2
20260504183012 68 146 2.6 7.8 0.00 0.00 0.00 69 1002.6
20260504181514 69 139 2.6 6.1 0.00 0.00 0.00 65 1003.7
20260504180010 69 156 3.5 8.7 0.00 0.00 0.00 64 1003.4
20260504174508 69 157 2.6 10.4 0.00 0.00 0.00 64 1003.5
20260504173007 69 160 4.3 7.8 0.00 0.00 0.00 63 1003.7
20260504171504 68 159 2.6 7.0 0.00 0.00 0.00 67 1004.2
20260504160106 64 163 4.3 9.6 0.00 0.00 0.00 71 1004.6
20260504081527 59 167 0.0 0.0 0.00 0.00 0.00 76 1006.9
20260504050000 66 186 2.6 6.1 0.00 0.00 0.00 60 1007.0
20260504044606 66 166 0.0 2.6 0.00 0.00 0.00 60 1007.0
20260504043100 67 166 0.0 0.0 0.00 0.00 0.00 59 1007.1
20260504041558 68 166 0.0 3.5 0.00 0.00 0.00 56 1007.7
20260504040107 69 167 0.9 5.2 0.00 0.00 0.00 56 1007.8
20260504034627 69 161 3.5 7.0 0.00 0.00 0.00 55 1007.8
20260504033057 69 163 0.0 4.3 0.00 0.00 0.00 56 1007.2
20260504031556 69 163 1.7 5.2 0.00 0.00 0.00 56 1008.0
20260504030120 70 164 1.7 5.2 0.00 0.00 0.00 55 1008.2
20260504024559 70 172 0.9 3.5 0.00 0.00 0.00 53 1008.0
20260504023055 71 244 0.0 0.0 0.00 0.00 0.00 53 1008.0
20260504021557 71 244 0.0 0.0 0.00 0.00 0.00 53 1008.0
20260504020105 72 244 0.0 0.0 0.00 0.00 0.00 51 1007.9
20260504014558 72 244 0.0 0.0 0.00 0.00 0.00 50 1008.0
20260504013055 73 244 0.0 1.7 0.00 0.00 0.00 51 1007.9